Regional Weather Roundup
Issued by NWS

Home | Current Version | Previous Version | Graphics & Text | Print | Product List | Glossary On
Versions: 1 2 3 4 5 6 7 8 9 10 11 12 13 14 15 16 17 18 19 20 21 22 23 24 25 26 27 28 29 30 31 32 33 34 35 36 37 38 39 40 41 42 43 44 45 46 47 48 49 50
000
ASUS43 KIND 221600
RWRIN

WEATHER ROUNDUP FOR INDIANA
NATIONAL WEATHER SERVICE INDIANAPOLIS IN
1200 PM EDT THU JUN 22 2017

NOTE: "FAIR" INDICATES FEW OR NO CLOUDS BELOW 12,000 FEET WITH NO
SIGNIFICANT WEATHER AND/OR OBSTRUCTIONS TO VISIBILITY.

* - STATION DOES NOT REPORT WEATHER SUCH AS PRECIPITATION OR FOG.

+ - STATION NOT QUALITY CONTROLLED BY THE NATIONAL WEATHER SERVICE.
    USE DATA WITH CAUTION...ESPECIALLY DEWPOINT AND RELATIVE
    HUMIDITY OBSERVATIONS.

INZ001>003-010>013-019-020-221700-
NORTHWEST INDIANA

CITY           SKY/WX    TMP DP  RH WIND       PRES   REMARKS
GARY /AIRPORT/ PTSUNNY   84  66  54 SW12      29.86F
KNOX *+        CLOUDY    79  59  50 SW12      29.89F
MICHIGAN CITY+ CLOUDY    84  68  58 SW15      29.87F
MONTICELLO +   CLOUDY    79  70  74 S9        29.92F
RENSSELAER +   CLOUDY    81  68  65 S13       29.90F

$$

LMZ046-743>745-221700-
SOUTHERN LAKE MICHIGAN

STATION/POSITION TIME  TEMP    WIND        PRES    WAVE
                       AIR SEA DIR/SP/G            HT
                 (UTC) (F)     (DEG/KT/KT) (MB)    (FT)
BURNS HARBOR     1540   80     200/ 13/ 18 1011.5F
MICHIGAN CITY    1530   78     190/ 12/ 16   N/A
5NW MICH CITY    1550   74 68  210/  8/ 10   N/A     1

$$

INZ004-005-014>016-021>024-221700-
NORTH CENTRAL INDIANA

CITY           SKY/WX    TMP DP  RH WIND       PRES   REMARKS
ELKHART        CLOUDY    79  68  69 SW9       29.90F
GOSHEN         MOSUNNY   81  68  64 S15       29.91F
SOUTH BEND     CLOUDY    80  70  71 SW9       29.89F

$$

INZ006>009-017-018-025>027-221700-
NORTHEAST INDIANA

CITY           SKY/WX    TMP DP  RH WIND       PRES   REMARKS
FORT WAYNE     LGT RAIN  77  69  76 W5        29.96S
KENDALLVILLE + CLOUDY    79  68  70 SW12      29.94F

$$

INZ028-029-035-036-043>045-051>053-221700-
WEST CENTRAL INDIANA

CITY           SKY/WX    TMP DP  RH WIND       PRES   REMARKS
CRAWFORDSVL +  MOSUNNY  N/A N/A N/A S13       29.94S
LAFAYETTE      PTSUNNY   80  72  76 VRB5      29.91F
TERRE HAUTE    CLOUDY    81  69  67 S10       29.94S

$$

INZ030>032-037>040-046>048-054>057-064-065-221700-
CENTRAL INDIANA

CITY           SKY/WX    TMP DP  RH WIND       PRES   REMARKS
ANDERSON         N/A     81  68  65 MISG        N/A
COLUMBUS       PTSUNNY   81  66  61 S17G23    29.99F
GREENWOOD *+   CLOUDY    82  68  61 S14       29.98S
INDIANAPOLIS   PTSUNNY   82  70  66 S16G23    29.96S
-EAGLE CREEK   PTSUNNY   83  69  62 S9        29.95F
KOKOMO +       CLOUDY    79  71  76 SW12      29.96S
MT COMFORT *+  PTSUNNY   81  70  69 SW10      29.97F
SHELBYVILLE    CLOUDY    82  69  64 S17       29.98S

$$

INZ033-034-041-042-049-050-058-059-221700-
EAST CENTRAL INDIANA

CITY           SKY/WX    TMP DP  RH WIND       PRES   REMARKS
MUNCIE         MOSUNNY   81  69  67 SW12G21   29.97S
RICHMOND +     CLOUDY    79  68  69 SW12G21   30.01F

$$

INZ060-061-067>069-081>083-085>088-221700-
SOUTHWEST INDIANA

CITY           SKY/WX    TMP DP  RH WIND       PRES   REMARKS
EVANSVILLE     CLOUDY    79  68  69 S13G30    29.96F
HUNTINGBURG *+ CLOUDY    78  69  73 S14G23    29.99S

$$

INZ062-063-066-070>080-084-089>092-221700-
SOUTH CENTRAL AND SOUTHEAST INDIANA

CITY           SKY/WX    TMP DP  RH WIND       PRES   REMARKS
BLOOMINGTON    CLOUDY    80  68  66 S15       29.98S
MADISON *+     CLOUDY    81  66  61 S10       30.05S
SEYMOUR +      CLOUDY    81  70  69 S13       30.00S

$$





USA.gov is the U.S. government's official web portal to all federal, state and local government web resources and services.